Find Starlink 3338

NORAD ID: 50812 Int'l Des: 2022-001 Owner: SPXS Country: US Constellation: starlink operational
LEOCIRCULAR

Live Position

Loading 3D Globe...

About Starlink 3338

Description loading...

Upcoming Passes

Passes for default location (London). Set your location on the main map for personalized predictions.

Altitude History

Loading altitude history...

Two-Line Element Set

1 50812U 22001K 26120.83459556 .00000707 00000-0 62505-4 0 9993
2 50812 53.2174 285.1376 0001237 91.1766 268.9368 15.08840861238416
Epoch: Apr 30, 2026 • Age: 17 hours

Current Status

Altitude 544.2 km
Velocity 7.59 km/s
Sub-Earth Point -15.43°S, 150.94°W
Launch Date Jan 6, 2022
Age 4.3 years
Type internet

Technical Details

Classification Payload
Mass 297.00 kg
Dry Mass 275.00 kg
Total Mass 297.00 kg
Length 0.20 m
Diameter 2.80 m
Span 9.00 m
Shape Box + pan
Manufacturer SPXS
Bus Type Starlink
Phase Status In Orbit
Owner/State SPXS/US

Most Searched